START_TIME,STEP,MOV.,M34,t_acc.,L5,t_acc.,L18,t_acc.,L14,t_acc.
1979-07-24 03:00:24.210 ,1,0,0.,12.0,0.,12.0,0.,12.0,0.,12.0
1979-07-24 03:00:36.210 ,1,0,2.,12.0,0.,12.0,0.,12.0,0.,12.0
1979-07-24 03:00:48.210 ,2,1,0.,12.0,0.,12.0,0.,12.0,0.,12.0
1979-07-24 03:01:00.210 ,2,1,0.,12.0,0.,12.0,0.,12.0,0.,12.0
1979-07-24 03:01:12.210 ,2,0,1.,12.0,0.,12.0,0.,12.0,0.,12.0
1979-07-24 03:01:24.210 ,2,0,0.,12.0,0.,12.0,0.,12.0,0.,12.0
1979-07-24 03:01:36.210 ,3,1,0.,12.0,0.,12.0,0.,12.0,0.,12.0
1979-07-24 03:01:48.210 ,3,1,0.,12.0,0.,12.0,0.,12.0,0.,12.0
1979-07-24 03:02:00.210 ,3,0,0.,12.0,0.,12.0,0.,12.0,0.,12.0
1979-07-24 03:02:12.210 ,3,0,0.,12.0,0.,12.0,0.,12.0,0.,12.0
1979-07-24 03:02:24.210 ,4,1,0.,12.0,0.,12.0,0.,12.0,0.,12.0
1979-07-24 03:02:36.210 ,4,1,0.,12.0,0.,12.0,0.,12.0,0.,12.0
1979-07-24 03:02:48.210 ,4,0,0.,12.0,0.,12.0,0.,12.0,0.,12.0
1979-07-24 03:03:00.210 ,4,0,0.,12.0,0.,12.0,0.,12.0,0.,12.0
1979-07-24 03:03:12.210 ,5,1,0.,12.0,0.,12.0,0.,12.0,0.,12.0
1979-07-24 03:03:24.210 ,5,1,0.,12.0,0.,12.0,0.,12.0,0.,12.0
1979-07-24 03:03:36.210 ,5,0,0.,12.0,0.,12.0,0.,12.0,0.,12.0
1979-07-24 03:03:48.210 ,5,0,0.,12.0,0.,12.0,0.,12.0,0.,12.0
1979-07-24 03:04:00.210 ,6,1,0.,12.0,0.,12.0,0.,12.0,0.,12.0
1979-07-24 03:04:12.210 ,6,1,0.,12.0,0.,12.0,0.,12.0,0.,12.0
1979-07-24 03:04:24.210 ,6,0,1.,12.0,0.,12.0,0.,12.0,0.,12.0
1979-07-24 03:04:36.210 ,6,0,1.,12.0,0.,12.0,0.,12.0,0.,12.0
1979-07-24 03:04:48.210 ,7,1,0.,12.0,0.,12.0,0.,12.0,0.,12.0
1979-07-24 03:05:00.210 ,7,1,0.,12.0,0.,12.0,0.,12.0,0.,12.0
1979-07-24 03:05:12.210 ,7,0,0.,12.0,0.,12.0,0.,12.0,0.,12.0
1979-07-24 03:05:24.210 ,7,0,0.,12.0,0.,12.0,0.,12.0,0.,12.0
1979-07-24 03:05:36.210 ,7,1,0.,12.0,0.,12.0,0.,12.0,0.,12.0
1979-07-24 03:05:48.210 ,7,1,0.,12.0,0.,12.0,0.,12.0,0.,12.0
1979-07-24 03:06:00.210 ,7,0,0.,12.0,0.,12.0,0.,12.0,0.,12.0
1979-07-24 03:06:12.210 ,7,0,0.,12.0,0.,12.0,0.,12.0,0.,12.0
1979-07-24 03:06:24.210 ,6,1,0.,12.0,0.,12.0,0.,12.0,0.,12.0
1979-07-24 03:06:36.210 ,6,1,0.,12.0,0.,12.0,0.,12.0,0.,12.0
1979-07-24 03:06:48.210 ,6,0,1.,12.0,0.,12.0,0.,12.0,0.,12.0
1979-07-24 03:07:00.210 ,6,0,0.,12.0,0.,12.0,0.,12.0,0.,12.0
1979-07-24 03:07:12.210 ,5,1,0.,12.0,0.,12.0,0.,12.0,0.,12.0
1979-07-24 03:07:24.210 ,5,1,0.,12.0,0.,12.0,0.,12.0,0.,12.0
1979-07-24 03:07:36.210 ,5,0,0.,12.0,0.,12.0,0.,12.0,0.,12.0
1979-07-24 03:07:48.210 ,5,0,0.,12.0,0.,12.0,0.,12.0,0.,12.0
1979-07-24 03:08:00.210 ,4,1,0.,12.0,0.,12.0,0.,12.0,0.,12.0
1979-07-24 03:08:12.210 ,4,1,0.,12.0,0.,12.0,0.,12.0,0.,12.0
1979-07-24 03:08:24.210 ,4,0,0.,12.0,0.,12.0,0.,12.0,0.,12.0
1979-07-24 03:08:36.210 ,4,0,0.,12.0,0.,12.0,0.,12.0,0.,12.0
1979-07-24 03:08:48.210 ,3,1,1.,12.0,0.,12.0,0.,12.0,0.,12.0
1979-07-24 03:09:00.210 ,3,1,0.,12.0,0.,12.0,0.,12.0,0.,12.0
1979-07-24 03:09:12.210 ,3,0,0.,12.0,0.,12.0,0.,12.0,0.,12.0
1979-07-24 03:09:24.210 ,3,0,0.,12.0,0.,12.0,0.,12.0,0.,12.0
1979-07-24 03:09:36.210 ,2,1,0.,12.0,0.,12.0,0.,12.0,0.,12.0
1979-07-24 03:09:48.210 ,2,1,0.,12.0,0.,12.0,0.,12.0,0.,12.0
1979-07-24 03:10:00.210 ,2,0,2.,12.0,0.,12.0,0.,12.0,0.,12.0
1979-07-24 03:10:12.210 ,2,0,0.,12.0,0.,12.0,0.,12.0,0.,12.0
1979-07-24 03:10:24.210 ,1,1,0.,12.0,0.,12.0,0.,12.0,1.,12.0
1979-07-24 03:10:36.210 ,1,1,0.,12.0,0.,12.0,0.,12.0,0.,12.0
1979-07-24 03:10:48.210 ,1,0,3.,12.0,0.,12.0,0.,12.0,0.,12.0
1979-07-24 03:11:00.210 ,1,0,1.,12.0,0.,12.0,0.,12.0,0.,12.0
1979-07-24 03:11:12.210 ,0,1,0.,12.0,0.,12.0,0.,12.0,0.,12.0
1979-07-24 03:11:24.210 ,0,1,0.,12.0,0.,12.0,1.,12.0,0.,12.0
1979-07-24 03:11:36.210 ,0,0,1.,12.0,0.,12.0,0.,12.0,0.,12.0
1979-07-24 03:11:48.210 ,0,0,1.,12.0,0.,12.0,0.,12.0,0.,12.0
1979-07-24 03:12:00.210 ,0,1,1.,12.0,0.,12.0,0.,12.0,0.,12.0
1979-07-24 03:12:12.210 ,0,1,0.,12.0,0.,12.0,0.,12.0,0.,12.0
1979-07-24 03:12:24.210 ,0,0,1.,12.0,0.,12.0,0.,12.0,0.,12.0
1979-07-24 03:12:36.210 ,0,0,1.,12.0,0.,12.0,0.,12.0,0.,12.0
1979-07-24 03:12:48.210 ,1,1,1.,12.0,0.,12.0,0.,12.0,0.,12.0
1979-07-24 03:13:00.210 ,1,1,1.,12.0,0.,12.0,0.,12.0,0.,12.0
1979-07-24 03:13:12.210 ,1,0,0.,12.0,0.,12.0,0.,12.0,0.,12.0
1979-07-24 03:13:24.210 ,1,0,1.,12.0,0.,12.0,0.,12.0,0.,12.0
1979-07-24 03:13:36.210 ,2,1,0.,12.0,0.,12.0,0.,12.0,0.,12.0
1979-07-24 03:13:48.210 ,2,1,0.,12.0,0.,12.0,0.,12.0,0.,12.0
1979-07-24 03:14:00.210 ,2,0,0.,12.0,0.,12.0,0.,12.0,0.,12.0
1979-07-24 03:14:12.210 ,2,0,1.,12.0,0.,12.0,0.,12.0,0.,12.0
1979-07-24 03:14:24.210 ,3,1,0.,12.0,0.,12.0,0.,12.0,0.,12.0
1979-07-24 03:14:36.210 ,3,1,0.,12.0,0.,12.0,0.,12.0,0.,12.0
1979-07-24 03:14:48.210 ,3,0,0.,12.0,0.,12.0,0.,12.0,0.,12.0
1979-07-24 03:15:00.210 ,3,0,0.,12.0,0.,12.0,0.,12.0,0.,12.0
1979-07-24 03:15:12.210 ,4,1,0.,12.0,0.,12.0,0.,12.0,0.,12.0
1979-07-24 03:15:24.210 ,4,1,0.,12.0,0.,12.0,0.,12.0,0.,12.0
1979-07-24 03:15:36.210 ,4,0,0.,12.0,0.,12.0,0.,12.0,0.,12.0
1979-07-24 03:15:48.210 ,4,0,0.,12.0,0.,12.0,0.,12.0,0.,12.0
1979-07-24 03:16:00.210 ,5,1,0.,12.0,0.,12.0,0.,12.0,0.,12.0
1979-07-24 03:16:12.210 ,5,1,0.,12.0,0.,12.0,0.,12.0,0.,12.0
1979-07-24 03:16:24.210 ,5,0,0.,12.0,0.,12.0,0.,12.0,0.,12.0
1979-07-24 03:16:36.210 ,5,0,0.,12.0,0.,12.0,0.,12.0,0.,12.0
1979-07-24 03:16:48.210 ,6,1,0.,12.0,0.,12.0,0.,12.0,0.,12.0
1979-07-24 03:17:00.210 ,6,1,0.,12.0,0.,12.0,0.,12.0,0.,12.0
1979-07-24 03:17:12.210 ,6,0,0.,12.0,0.,12.0,0.,12.0,0.,12.0
1979-07-24 03:17:24.210 ,6,0,0.,12.0,0.,12.0,0.,12.0,0.,12.0
1979-07-24 03:17:36.210 ,7,1,0.,12.0,0.,12.0,0.,12.0,0.,12.0
1979-07-24 03:17:48.210 ,7,1,0.,12.0,0.,12.0,0.,12.0,0.,12.0
1979-07-24 03:18:00.210 ,7,0,0.,12.0,0.,12.0,0.,12.0,0.,12.0
1979-07-24 03:18:12.210 ,7,0,0.,12.0,0.,12.0,0.,12.0,0.,12.0
1979-07-24 03:18:24.210 ,7,1,0.,12.0,0.,12.0,0.,12.0,0.,12.0
1979-07-24 03:18:36.210 ,7,1,0.,12.0,0.,12.0,0.,12.0,0.,12.0
1979-07-24 03:18:48.210 ,7,0,0.,12.0,0.,12.0,0.,12.0,0.,12.0
1979-07-24 03:19:00.210 ,7,0,0.,12.0,0.,12.0,0.,12.0,0.,12.0
1979-07-24 03:19:12.210 ,6,1,0.,12.0,0.,12.0,0.,12.0,0.,12.0
1979-07-24 03:19:24.210 ,6,1,0.,12.0,0.,12.0,0.,12.0,0.,12.0
1979-07-24 03:19:36.210 ,6,0,0.,12.0,0.,12.0,0.,12.0,0.,12.0
1979-07-24 03:19:48.210 ,6,0,0.,12.0,0.,12.0,0.,12.0,0.,12.0
1979-07-24 03:20:00.210 ,5,1,1.,12.0,0.,12.0,0.,12.0,0.,12.0
1979-07-24 03:20:12.210 ,5,1,0.,12.0,0.,12.0,0.,12.0,0.,12.0
1979-07-24 03:20:24.210 ,5,0,0.,12.0,0.,12.0,0.,12.0,0.,12.0
1979-07-24 03:20:36.210 ,5,0,0.,12.0,0.,12.0,0.,12.0,0.,12.0
1979-07-24 03:20:48.210 ,4,1,0.,12.0,0.,12.0,0.,12.0,0.,12.0
1979-07-24 03:21:00.210 ,4,1,0.,12.0,0.,12.0,0.,12.0,0.,12.0
1979-07-24 03:21:12.210 ,4,0,0.,12.0,0.,12.0,0.,12.0,0.,12.0
1979-07-24 03:21:24.210 ,4,0,0.,12.0,0.,12.0,0.,12.0,0.,12.0
1979-07-24 03:21:36.210 ,3,1,0.,12.0,0.,12.0,0.,12.0,0.,12.0
1979-07-24 03:21:48.210 ,3,1,1.,12.0,0.,12.0,0.,12.0,0.,12.0
1979-07-24 03:22:00.210 ,3,0,0.,12.0,0.,12.0,0.,12.0,0.,12.0
1979-07-24 03:22:12.210 ,3,0,0.,12.0,0.,12.0,0.,12.0,0.,12.0
1979-07-24 03:22:24.210 ,2,1,0.,12.0,0.,12.0,0.,12.0,0.,12.0
1979-07-24 03:22:36.210 ,2,1,0.,12.0,0.,12.0,0.,12.0,0.,12.0
1979-07-24 03:22:48.210 ,2,0,1.,12.0,0.,12.0,0.,12.0,0.,12.0
1979-07-24 03:23:00.210 ,2,0,0.,12.0,0.,12.0,0.,12.0,0.,12.0
1979-07-24 03:23:12.210 ,1,1,0.,12.0,0.,12.0,0.,12.0,0.,12.0
1979-07-24 03:23:24.210 ,1,1,0.,12.0,0.,12.0,0.,12.0,0.,12.0
1979-07-24 03:23:36.210 ,1,0,0.,12.0,0.,12.0,0.,12.0,0.,12.0
1979-07-24 03:23:48.210 ,1,0,0.,12.0,0.,12.0,0.,12.0,0.,12.0
1979-07-24 03:24:00.210 ,0,1,0.,12.0,0.,12.0,0.,12.0,0.,12.0
1979-07-24 03:24:12.210 ,0,1,1.,12.0,0.,12.0,0.,12.0,0.,12.0
1979-07-24 03:24:24.210 ,0,0,3.,12.0,0.,12.0,0.,12.0,0.,12.0
1979-07-24 03:24:36.210 ,0,0,0.,12.0,0.,12.0,0.,12.0,0.,12.0
1979-07-24 03:24:48.210 ,0,1,0.,12.0,0.,12.0,0.,12.0,0.,12.0
1979-07-24 03:25:00.210 ,0,1,0.,12.0,0.,12.0,0.,12.0,0.,12.0
1979-07-24 03:25:12.210 ,0,0,1.,12.0,0.,12.0,0.,12.0,0.,12.0
1979-07-24 03:25:24.210 ,0,0,0.,12.0,0.,12.0,0.,12.0,0.,12.0
1979-07-24 03:25:36.210 ,1,1,0.,12.0,0.,12.0,0.,12.0,0.,12.0
1979-07-24 03:25:48.210 ,1,1,0.,12.0,0.,12.0,0.,12.0,0.,12.0
1979-07-24 03:26:00.210 ,1,0,1.,12.0,0.,12.0,0.,12.0,0.,12.0
1979-07-24 03:26:12.210 ,1,0,0.,12.0,0.,12.0,0.,12.0,0.,12.0
1979-07-24 03:26:24.210 ,2,1,2.,12.0,0.,12.0,0.,12.0,0.,12.0
1979-07-24 03:26:36.210 ,2,1,2.,12.0,0.,12.0,0.,12.0,0.,12.0
1979-07-24 03:26:48.210 ,2,0,0.,12.0,0.,12.0,0.,12.0,0.,12.0
1979-07-24 03:27:00.210 ,2,0,1.,12.0,0.,12.0,0.,12.0,0.,12.0
1979-07-24 03:27:12.210 ,3,1,0.,12.0,0.,12.0,0.,12.0,0.,12.0
1979-07-24 03:27:24.210 ,3,1,0.,12.0,0.,12.0,0.,12.0,0.,12.0
1979-07-24 03:27:36.210 ,3,0,0.,12.0,0.,12.0,0.,12.0,0.,12.0
1979-07-24 03:27:48.210 ,3,0,0.,12.0,0.,12.0,0.,12.0,0.,12.0
1979-07-24 03:28:00.210 ,4,1,0.,12.0,0.,12.0,0.,12.0,0.,12.0
1979-07-24 03:28:12.210 ,4,1,0.,12.0,0.,12.0,0.,12.0,0.,12.0
1979-07-24 03:28:24.210 ,4,0,0.,12.0,0.,12.0,0.,12.0,0.,12.0
1979-07-24 03:28:36.210 ,4,0,1.,12.0,0.,12.0,0.,12.0,0.,12.0
1979-07-24 03:28:48.210 ,5,1,0.,12.0,0.,12.0,0.,12.0,0.,12.0
1979-07-24 03:29:00.210 ,5,1,0.,12.0,0.,12.0,0.,12.0,0.,12.0
1979-07-24 03:29:12.210 ,5,0,0.,12.0,0.,12.0,0.,12.0,0.,12.0
1979-07-24 03:29:24.210 ,5,0,1.,12.0,0.,12.0,0.,12.0,0.,12.0
1979-07-24 03:29:36.210 ,6,1,0.,12.0,0.,12.0,0.,12.0,0.,12.0
1979-07-24 03:29:48.210 ,6,1,0.,12.0,0.,12.0,0.,12.0,0.,12.0
1979-07-24 03:30:00.210 ,6,0,0.,12.0,0.,12.0,0.,12.0,0.,12.0
1979-07-24 03:30:12.210 ,6,0,0.,12.0,0.,12.0,0.,12.0,0.,12.0
1979-07-24 03:30:24.210 ,7,0,1.,12.0,0.,12.0,0.,12.0,0.,12.0
1979-07-24 03:30:36.210 ,7,0,0.,12.0,0.,12.0,0.,12.0,0.,12.0
1979-07-24 03:30:48.210 ,7,0,0.,12.0,0.,12.0,0.,12.0,0.,12.0
1979-07-24 03:31:00.210 ,7,0,0.,12.0,0.,12.0,0.,12.0,0.,12.0
1979-07-24 03:31:12.210 ,4,1,0.,12.0,0.,12.0,0.,12.0,0.,12.0
1979-07-24 03:31:24.210 ,4,1,0.,12.0,0.,12.0,0.,12.0,0.,12.0
1979-07-24 03:31:36.210 ,0,1,0.,12.0,0.,12.0,0.,12.0,0.,12.0
1979-07-24 03:31:48.210 ,0,1,0.,12.0,0.,12.0,0.,12.0,0.,12.0
1979-07-24 03:32:00.210 ,3,1,0.,12.0,0.,12.0,0.,12.0,0.,12.0
1979-07-24 03:32:12.210 ,3,1,0.,12.0,0.,12.0,0.,12.0,0.,12.0
1979-07-24 03:32:24.210 ,7,1,0.,12.0,0.,12.0,0.,12.0,0.,12.0
1979-07-24 03:32:36.210 ,7,1,0.,12.0,0.,12.0,0.,12.0,0.,12.0
1979-07-24 03:32:48.210 ,4,1,0.,12.0,0.,12.0,0.,12.0,0.,12.0
1979-07-24 03:33:00.210 ,4,1,0.,12.0,0.,12.0,0.,12.0,0.,12.0
1979-07-24 03:33:12.210 ,0,1,0.,12.0,0.,12.0,0.,12.0,0.,12.0
1979-07-24 03:33:24.210 ,0,1,0.,12.0,0.,12.0,0.,12.0,0.,12.0
1979-07-24 03:33:36.210 ,3,1,1.,12.0,0.,12.0,0.,12.0,0.,12.0
1979-07-24 03:33:48.210 ,3,1,0.,12.0,0.,12.0,0.,12.0,0.,12.0
1979-07-24 03:34:00.210 ,7,1,0.,12.0,0.,12.0,0.,12.0,0.,12.0
1979-07-24 03:34:12.210 ,7,1,0.,12.0,0.,12.0,0.,12.0,0.,12.0
1979-07-24 03:34:24.210 ,4,1,0.,12.0,0.,12.0,0.,12.0,0.,12.0
1979-07-24 03:34:36.210 ,4,1,0.,12.0,0.,12.0,0.,12.0,0.,12.0
1979-07-24 03:34:48.210 ,0,1,0.,12.0,0.,12.0,0.,12.0,0.,12.0
1979-07-24 03:35:00.210 ,0,1,1.,12.0,0.,12.0,0.,12.0,0.,12.0
1979-07-24 03:35:12.210 ,3,1,0.,12.0,0.,12.0,0.,12.0,0.,12.0
1979-07-24 03:35:24.210 ,3,1,0.,12.0,0.,12.0,0.,12.0,0.,12.0
1979-07-24 03:35:36.210 ,7,1,0.,12.0,0.,12.0,0.,12.0,0.,12.0
1979-07-24 03:35:48.210 ,7,1,0.,12.0,0.,12.0,0.,12.0,0.,12.0
1979-07-24 03:36:00.210 ,4,1,0.,12.0,0.,12.0,0.,12.0,0.,12.0
1979-07-24 03:36:12.210 ,4,1,0.,12.0,0.,12.0,0.,12.0,0.,12.0
1979-07-24 03:36:24.210 ,0,1,0.,12.0,0.,12.0,0.,12.0,0.,12.0
1979-07-24 03:36:36.210 ,0,1,2.,12.0,0.,12.0,0.,12.0,0.,12.0
1979-07-24 03:36:48.210 ,3,1,1.,12.0,0.,12.0,0.,12.0,0.,12.0
1979-07-24 03:37:00.210 ,3,1,1.,12.0,0.,12.0,0.,12.0,0.,12.0
1979-07-24 03:37:12.210 ,7,1,0.,12.0,0.,12.0,0.,12.0,0.,12.0
1979-07-24 03:37:24.210 ,7,1,0.,12.0,0.,12.0,0.,12.0,0.,12.0
1979-07-24 03:37:36.210 ,4,1,0.,12.0,0.,12.0,0.,12.0,0.,12.0
1979-07-24 03:37:48.210 ,4,1,0.,12.0,0.,12.0,0.,12.0,0.,12.0
1979-07-24 03:38:00.210 ,0,1,0.,12.0,0.,12.0,0.,12.0,1.,12.0
1979-07-24 03:38:12.210 ,0,1,1.,12.0,0.,12.0,0.,12.0,0.,12.0
1979-07-24 03:38:24.210 ,3,1,0.,12.0,0.,12.0,0.,12.0,0.,12.0
1979-07-24 03:38:36.210 ,3,1,0.,12.0,0.,12.0,0.,12.0,0.,12.0
1979-07-24 03:38:48.210 ,7,1,0.,12.0,0.,12.0,0.,12.0,0.,12.0
1979-07-24 03:39:00.210 ,7,1,0.,12.0,0.,12.0,0.,12.0,0.,12.0
1979-07-24 03:39:12.210 ,4,1,0.,12.0,0.,12.0,0.,12.0,0.,12.0
1979-07-24 03:39:24.210 ,4,1,0.,12.0,0.,12.0,0.,12.0,0.,12.0
1979-07-24 03:39:36.210 ,0,1,0.,12.0,0.,12.0,0.,12.0,0.,12.0
1979-07-24 03:39:48.210 ,0,1,2.,12.0,0.,12.0,0.,12.0,0.,12.0
1979-07-24 03:40:00.210 ,3,1,0.,12.0,0.,12.0,0.,12.0,0.,12.0
1979-07-24 03:40:12.210 ,3,1,0.,12.0,0.,12.0,0.,12.0,0.,12.0
1979-07-24 03:40:24.210 ,7,1,0.,12.0,0.,12.0,0.,12.0,0.,12.0
1979-07-24 03:40:36.210 ,7,1,0.,12.0,0.,12.0,0.,12.0,0.,12.0
1979-07-24 03:41:36.210 ,0,0,0.,12.0,0.,12.0,0.,12.0,0.,12.0
1979-07-24 03:41:48.210 ,0,0,0.,12.0,0.,12.0,0.,12.0,0.,12.0
1979-07-24 03:42:00.210 ,0,0,0.,12.0,0.,12.0,0.,12.0,0.,12.0
1979-07-24 03:42:12.210 ,0,0,31.,12.0,2064384.,12.0,0.,12.0,0.,12.0
1979-07-24 03:42:00.210 ,0,0,0.,12.0,0.,12.0,0.,12.0,0.,12.0
1979-07-24 03:42:12.210 ,0,0,1.,12.0,0.,12.0,0.,12.0,0.,12.0
1979-07-24 03:42:24.210 ,5,1,0.,12.0,0.,12.0,0.,12.0,0.,12.0
1979-07-24 03:42:36.210 ,5,1,2.,12.0,0.,12.0,0.,12.0,0.,12.0
1979-07-24 03:42:48.210 ,5,0,0.,12.0,0.,12.0,0.,12.0,0.,12.0
1979-07-24 03:43:00.210 ,5,0,1.,12.0,0.,12.0,0.,12.0,0.,12.0
1979-07-24 03:43:12.210 ,4,1,1.,12.0,0.,12.0,0.,12.0,0.,12.0
1979-07-24 03:43:24.210 ,4,1,0.,12.0,0.,12.0,0.,12.0,0.,12.0
1979-07-24 03:43:36.210 ,4,0,0.,12.0,0.,12.0,0.,12.0,0.,12.0
1979-07-24 03:43:48.210 ,4,0,0.,12.0,0.,12.0,0.,12.0,0.,12.0
1979-07-24 03:44:00.210 ,3,1,0.,12.0,0.,12.0,0.,12.0,0.,12.0
1979-07-24 03:44:12.210 ,3,1,0.,12.0,0.,12.0,0.,12.0,0.,12.0
1979-07-24 03:44:24.210 ,3,0,0.,12.0,0.,12.0,0.,12.0,0.,12.0
1979-07-24 03:44:36.210 ,3,0,0.,12.0,0.,12.0,0.,12.0,0.,12.0
1979-07-24 03:44:48.210 ,2,1,0.,12.0,0.,12.0,0.,12.0,0.,12.0
1979-07-24 03:45:00.210 ,2,1,1.,12.0,0.,12.0,0.,12.0,0.,12.0
1979-07-24 03:45:12.210 ,2,0,0.,12.0,0.,12.0,0.,12.0,0.,12.0
1979-07-24 03:45:24.210 ,2,0,0.,12.0,0.,12.0,0.,12.0,0.,12.0
1979-07-24 03:45:36.210 ,1,1,1.,12.0,0.,12.0,0.,12.0,0.,12.0
1979-07-24 03:45:48.210 ,1,1,1.,12.0,0.,12.0,0.,12.0,0.,12.0
1979-07-24 03:46:00.210 ,1,0,0.,12.0,0.,12.0,0.,12.0,0.,12.0
1979-07-24 03:46:12.210 ,1,0,0.,12.0,0.,12.0,0.,12.0,0.,12.0
1979-07-24 03:46:24.210 ,0,1,0.,12.0,0.,12.0,0.,12.0,0.,12.0
1979-07-24 03:46:36.210 ,0,1,0.,12.0,0.,12.0,0.,12.0,0.,12.0
1979-07-24 03:46:48.210 ,0,0,1.,12.0,0.,12.0,0.,12.0,0.,12.0
1979-07-24 03:47:00.210 ,0,0,1.,12.0,0.,12.0,0.,12.0,0.,12.0
1979-07-24 03:47:12.210 ,0,1,0.,12.0,0.,12.0,0.,12.0,0.,12.0
1979-07-24 03:47:24.210 ,0,1,0.,12.0,0.,12.0,0.,12.0,0.,12.0
1979-07-24 03:47:36.210 ,0,0,0.,12.0,0.,12.0,0.,12.0,0.,12.0
1979-07-24 03:47:48.210 ,0,0,1.,12.0,0.,12.0,0.,12.0,0.,12.0
1979-07-24 03:48:00.210 ,1,1,0.,12.0,0.,12.0,0.,12.0,0.,12.0
1979-07-24 03:48:12.210 ,1,1,0.,12.0,0.,12.0,0.,12.0,0.,12.0
1979-07-24 03:48:24.210 ,1,0,0.,12.0,0.,12.0,0.,12.0,0.,12.0
1979-07-24 03:48:36.210 ,1,0,0.,12.0,0.,12.0,0.,12.0,0.,12.0
1979-07-24 03:48:48.210 ,2,1,0.,12.0,0.,12.0,0.,12.0,0.,12.0
1979-07-24 03:49:00.210 ,2,1,0.,12.0,0.,12.0,0.,12.0,0.,12.0
1979-07-24 03:49:12.210 ,2,0,0.,12.0,0.,12.0,0.,12.0,1.,12.0
1979-07-24 03:49:24.210 ,2,0,0.,12.0,0.,12.0,0.,12.0,0.,12.0
1979-07-24 03:49:36.200 ,3,1,0.,12.0,0.,12.0,0.,12.0,0.,12.0
1979-07-24 03:49:48.200 ,3,1,0.,12.0,0.,12.0,0.,12.0,0.,12.0
1979-07-24 03:50:00.200 ,3,0,0.,12.0,0.,12.0,0.,12.0,0.,12.0
1979-07-24 03:50:12.200 ,3,0,0.,12.0,0.,12.0,0.,12.0,0.,12.0
1979-07-24 03:50:24.200 ,4,1,1.,12.0,0.,12.0,0.,12.0,0.,12.0
1979-07-24 03:50:36.200 ,4,1,0.,12.0,0.,12.0,0.,12.0,0.,12.0
1979-07-24 03:50:48.200 ,4,0,0.,12.0,0.,12.0,0.,12.0,0.,12.0
1979-07-24 03:51:00.200 ,4,0,0.,12.0,0.,12.0,0.,12.0,0.,12.0
1979-07-24 03:51:12.200 ,5,1,1.,12.0,0.,12.0,0.,12.0,0.,12.0
1979-07-24 03:51:24.200 ,5,1,0.,12.0,0.,12.0,0.,12.0,0.,12.0
1979-07-24 03:51:36.200 ,5,0,0.,12.0,0.,12.0,0.,12.0,0.,12.0
1979-07-24 03:51:48.200 ,5,0,0.,12.0,0.,12.0,0.,12.0,0.,12.0
1979-07-24 03:52:00.200 ,6,1,0.,12.0,0.,12.0,0.,12.0,0.,12.0
1979-07-24 03:52:12.200 ,6,1,2.,12.0,0.,12.0,0.,12.0,0.,12.0
1979-07-24 03:52:24.200 ,6,0,0.,12.0,0.,12.0,0.,12.0,1.,12.0
1979-07-24 03:52:36.200 ,6,0,1.,12.0,0.,12.0,0.,12.0,0.,12.0
1979-07-24 03:52:48.200 ,7,1,1.,12.0,0.,12.0,0.,12.0,0.,12.0
1979-07-24 03:53:00.200 ,7,1,0.,12.0,0.,12.0,0.,12.0,0.,12.0
1979-07-24 03:53:12.200 ,7,0,0.,12.0,0.,12.0,0.,12.0,0.,12.0
1979-07-24 03:53:24.200 ,7,0,0.,12.0,0.,12.0,0.,12.0,0.,12.0
1979-07-24 03:53:36.200 ,7,1,0.,12.0,0.,12.0,0.,12.0,0.,12.0
1979-07-24 03:53:48.200 ,7,1,0.,12.0,0.,12.0,0.,12.0,0.,12.0
1979-07-24 03:54:00.200 ,7,0,0.,12.0,0.,12.0,0.,12.0,0.,12.0
1979-07-24 03:54:12.200 ,7,0,0.,12.0,0.,12.0,0.,12.0,0.,12.0
1979-07-24 03:54:24.200 ,6,1,0.,12.0,0.,12.0,0.,12.0,0.,12.0
1979-07-24 03:54:36.200 ,6,1,0.,12.0,0.,12.0,0.,12.0,0.,12.0
1979-07-24 03:54:48.200 ,6,0,0.,12.0,0.,12.0,0.,12.0,0.,12.0
1979-07-24 03:55:00.200 ,6,0,0.,12.0,0.,12.0,0.,12.0,0.,12.0
1979-07-24 03:55:36.200 ,5,0,0.,12.0,0.,12.0,0.,12.0,0.,12.0
1979-07-24 03:55:48.200 ,5,0,0.,12.0,0.,12.0,0.,12.0,0.,12.0
1979-07-24 03:56:00.200 ,4,1,0.,12.0,0.,12.0,0.,12.0,0.,12.0
1979-07-24 03:56:12.200 ,4,1,0.,12.0,0.,12.0,0.,12.0,0.,12.0
1979-07-24 03:56:24.200 ,4,0,0.,12.0,0.,12.0,0.,12.0,0.,12.0
1979-07-24 03:56:36.200 ,4,0,0.,12.0,0.,12.0,0.,12.0,0.,12.0
1979-07-24 03:56:48.200 ,3,1,1.,12.0,0.,12.0,0.,12.0,0.,12.0
1979-07-24 03:57:00.200 ,3,1,0.,12.0,0.,12.0,0.,12.0,0.,12.0
1979-07-24 03:57:12.200 ,3,0,0.,12.0,0.,12.0,0.,12.0,0.,12.0
1979-07-24 03:57:24.200 ,3,0,0.,12.0,0.,12.0,0.,12.0,0.,12.0
1979-07-24 03:57:36.200 ,2,1,0.,12.0,0.,12.0,0.,12.0,0.,12.0
1979-07-24 03:57:48.200 ,2,1,0.,12.0,0.,12.0,0.,12.0,0.,12.0
1979-07-24 03:58:00.200 ,2,0,0.,12.0,0.,12.0,0.,12.0,0.,12.0
1979-07-24 03:58:12.200 ,2,0,0.,12.0,0.,12.0,0.,12.0,0.,12.0
1979-07-24 03:58:24.200 ,1,1,0.,12.0,0.,12.0,0.,12.0,0.,12.0
1979-07-24 03:58:36.200 ,1,1,1.,12.0,0.,12.0,0.,12.0,0.,12.0
1979-07-24 03:58:48.200 ,1,0,0.,12.0,0.,12.0,0.,12.0,0.,12.0
1979-07-24 03:59:00.200 ,1,0,0.,12.0,0.,12.0,0.,12.0,0.,12.0
1979-07-24 03:59:12.200 ,0,1,0.,12.0,0.,12.0,0.,12.0,0.,12.0
1979-07-24 03:59:24.200 ,0,1,0.,12.0,0.,12.0,0.,12.0,0.,12.0
1979-07-24 03:59:36.200 ,0,0,0.,12.0,0.,12.0,0.,12.0,0.,12.0
1979-07-24 03:59:48.200 ,0,0,1.,12.0,0.,12.0,0.,12.0,0.,12.0
1979-07-24 04:00:00.200 ,0,1,1.,12.0,0.,12.0,0.,12.0,0.,12.0
1979-07-24 04:00:12.200 ,0,1,0.,12.0,0.,12.0,0.,12.0,0.,12.0
1979-07-24 04:00:24.200 ,0,0,0.,12.0,0.,12.0,0.,12.0,0.,12.0
1979-07-24 04:00:36.210 ,0,0,1.,12.0,0.,12.0,0.,12.0,0.,12.0
1979-07-24 04:00:48.210 ,1,1,0.,12.0,0.,12.0,0.,12.0,0.,12.0
1979-07-24 04:01:00.210 ,1,1,1.,12.0,0.,12.0,0.,12.0,0.,12.0
1979-07-24 04:01:12.200 ,1,0,0.,12.0,0.,12.0,0.,12.0,0.,12.0
1979-07-24 04:01:24.210 ,1,0,0.,12.0,0.,12.0,0.,12.0,0.,12.0
1979-07-24 04:01:36.210 ,2,1,0.,12.0,0.,12.0,0.,12.0,0.,12.0
1979-07-24 04:01:48.210 ,2,1,1.,12.0,0.,12.0,0.,12.0,0.,12.0
1979-07-24 04:02:00.200 ,2,0,0.,12.0,0.,12.0,0.,12.0,0.,12.0
1979-07-24 04:02:12.210 ,2,0,0.,12.0,0.,12.0,0.,12.0,0.,12.0
1979-07-24 04:02:24.210 ,3,1,0.,12.0,0.,12.0,0.,12.0,0.,12.0
1979-07-24 04:02:36.210 ,3,1,1.,12.0,0.,12.0,0.,12.0,0.,12.0
1979-07-24 04:02:48.210 ,3,0,0.,12.0,0.,12.0,0.,12.0,0.,12.0
1979-07-24 04:03:00.210 ,3,0,0.,12.0,0.,12.0,0.,12.0,0.,12.0
1979-07-24 04:03:12.210 ,4,1,0.,12.0,0.,12.0,0.,12.0,0.,12.0
1979-07-24 04:03:24.210 ,4,1,1.,12.0,0.,12.0,0.,12.0,0.,12.0
1979-07-24 04:03:36.210 ,4,0,0.,12.0,0.,12.0,0.,12.0,0.,12.0
1979-07-24 04:03:48.210 ,4,0,1.,12.0,0.,12.0,0.,12.0,0.,12.0
1979-07-24 04:04:00.210 ,5,1,0.,12.0,0.,12.0,0.,12.0,0.,12.0
1979-07-24 04:04:12.210 ,5,1,0.,12.0,0.,12.0,0.,12.0,0.,12.0
1979-07-24 04:04:24.210 ,5,0,0.,12.0,0.,12.0,0.,12.0,0.,12.0
1979-07-24 04:04:36.210 ,5,0,0.,12.0,0.,12.0,0.,12.0,0.,12.0
1979-07-24 04:04:48.210 ,6,1,0.,12.0,0.,12.0,0.,12.0,0.,12.0
1979-07-24 04:05:00.210 ,6,1,0.,12.0,0.,12.0,0.,12.0,0.,12.0
1979-07-24 04:05:12.210 ,6,0,1.,12.0,0.,12.0,0.,12.0,0.,12.0
1979-07-24 04:05:24.210 ,6,0,0.,12.0,0.,12.0,0.,12.0,0.,12.0
1979-07-24 04:05:36.210 ,7,1,0.,12.0,0.,12.0,0.,12.0,0.,12.0
1979-07-24 04:05:48.210 ,7,1,0.,12.0,0.,12.0,0.,12.0,0.,12.0
1979-07-24 04:06:00.210 ,7,0,0.,12.0,0.,12.0,0.,12.0,0.,12.0
1979-07-24 04:06:12.210 ,7,0,0.,12.0,0.,12.0,0.,12.0,0.,12.0
1979-07-24 04:06:24.210 ,7,1,0.,12.0,0.,12.0,0.,12.0,0.,12.0
1979-07-24 04:06:36.210 ,7,1,0.,12.0,0.,12.0,0.,12.0,0.,12.0
1979-07-24 04:06:48.210 ,7,0,0.,12.0,0.,12.0,0.,12.0,0.,12.0
1979-07-24 04:07:00.210 ,7,0,0.,12.0,0.,12.0,0.,12.0,0.,12.0
1979-07-24 04:07:12.210 ,6,1,0.,12.0,0.,12.0,0.,12.0,0.,12.0
1979-07-24 04:07:24.210 ,6,1,0.,12.0,0.,12.0,0.,12.0,0.,12.0
1979-07-24 04:07:36.210 ,6,0,0.,12.0,0.,12.0,0.,12.0,0.,12.0
1979-07-24 04:07:48.210 ,6,0,0.,12.0,0.,12.0,0.,12.0,0.,12.0
1979-07-24 04:08:00.210 ,5,1,0.,12.0,0.,12.0,0.,12.0,0.,12.0
1979-07-24 04:08:12.210 ,5,1,1.,12.0,0.,12.0,0.,12.0,0.,12.0
1979-07-24 04:08:24.210 ,5,0,0.,12.0,0.,12.0,0.,12.0,0.,12.0
1979-07-24 04:08:36.210 ,5,0,0.,12.0,0.,12.0,0.,12.0,0.,12.0
1979-07-24 04:08:48.210 ,4,1,0.,12.0,0.,12.0,0.,12.0,0.,12.0
1979-07-24 04:09:00.210 ,4,1,0.,12.0,0.,12.0,0.,12.0,0.,12.0
1979-07-24 04:09:12.210 ,4,0,0.,12.0,0.,12.0,0.,12.0,0.,12.0
1979-07-24 04:09:24.210 ,4,0,0.,12.0,0.,12.0,0.,12.0,0.,12.0
1979-07-24 04:09:36.200 ,0,0,0.,12.0,0.,12.0,0.,12.0,0.,12.0
1979-07-24 04:09:48.200 ,0,0,0.,12.0,0.,12.0,0.,12.0,0.,12.0
1979-07-24 04:10:00.200 ,0,0,0.,12.0,0.,12.0,0.,12.0,0.,12.0
1979-07-24 04:10:12.200 ,0,0,0.,12.0,0.,12.0,0.,12.0,0.,12.0
1979-07-24 04:10:24.200 ,2,1,0.,12.0,0.,12.0,0.,12.0,0.,12.0
1979-07-24 04:10:36.200 ,2,1,1.,12.0,0.,12.0,0.,12.0,0.,12.0
1979-07-24 04:10:48.200 ,2,0,0.,12.0,0.,12.0,0.,12.0,0.,12.0
1979-07-24 04:11:00.200 ,2,0,0.,12.0,0.,12.0,0.,12.0,0.,12.0
1979-07-24 04:11:12.200 ,1,1,0.,12.0,0.,12.0,0.,12.0,0.,12.0
1979-07-24 04:11:24.200 ,1,1,1.,12.0,0.,12.0,0.,12.0,0.,12.0
1979-07-24 04:11:36.200 ,1,0,0.,12.0,0.,12.0,0.,12.0,0.,12.0
1979-07-24 04:11:48.200 ,1,0,1.,12.0,0.,12.0,0.,12.0,0.,12.0
1979-07-24 04:12:00.200 ,0,1,0.,12.0,0.,12.0,0.,12.0,0.,12.0
1979-07-24 04:12:12.200 ,0,1,0.,12.0,0.,12.0,0.,12.0,0.,12.0
1979-07-24 04:12:24.200 ,0,0,1.,12.0,0.,12.0,0.,12.0,0.,12.0
1979-07-24 04:12:36.200 ,0,0,0.,12.0,0.,12.0,0.,12.0,0.,12.0
1979-07-24 04:12:48.200 ,0,1,1.,12.0,0.,12.0,0.,12.0,0.,12.0
1979-07-24 04:13:00.200 ,0,1,0.,12.0,0.,12.0,0.,12.0,0.,12.0
1979-07-24 04:13:12.200 ,0,0,0.,12.0,0.,12.0,0.,12.0,0.,12.0
1979-07-24 04:13:24.200 ,0,0,2.,12.0,0.,12.0,0.,12.0,0.,12.0
1979-07-24 04:13:36.200 ,1,1,0.,12.0,0.,12.0,0.,12.0,0.,12.0
1979-07-24 04:13:48.200 ,1,1,0.,12.0,0.,12.0,0.,12.0,0.,12.0
1979-07-24 04:14:00.200 ,1,0,0.,12.0,0.,12.0,0.,12.0,0.,12.0
1979-07-24 04:14:12.200 ,1,0,0.,12.0,0.,12.0,0.,12.0,0.,12.0
1979-07-24 04:14:24.200 ,0,0,1.,12.0,0.,12.0,0.,12.0,0.,12.0
1979-07-24 04:14:36.200 ,0,0,0.,12.0,0.,12.0,0.,12.0,0.,12.0
1979-07-24 04:14:48.200 ,0,0,,0,,0,,0,,0
1979-07-24 04:15:00.200 ,0,0,,0,,0,,0,,0
1979-07-24 04:14:48.200 ,2,0,0.,12.0,0.,12.0,0.,12.0,0.,12.0
1979-07-24 04:15:00.200 ,2,0,0.,12.0,0.,12.0,0.,12.0,0.,12.0
1979-07-24 04:15:12.200 ,3,1,0.,12.0,0.,12.0,0.,12.0,0.,12.0
1979-07-24 04:15:24.200 ,3,1,0.,12.0,0.,12.0,0.,12.0,0.,12.0
1979-07-24 04:15:36.200 ,3,0,0.,12.0,0.,12.0,0.,12.0,0.,12.0
1979-07-24 04:15:48.200 ,3,0,0.,12.0,0.,12.0,0.,12.0,0.,12.0
1979-07-24 04:16:00.200 ,4,1,0.,12.0,0.,12.0,0.,12.0,0.,12.0
1979-07-24 04:16:12.200 ,4,1,0.,12.0,0.,12.0,0.,12.0,0.,12.0
1979-07-24 04:16:24.200 ,4,0,0.,12.0,0.,12.0,0.,12.0,0.,12.0
1979-07-24 04:16:36.200 ,4,0,1.,12.0,0.,12.0,0.,12.0,0.,12.0
1979-07-24 04:16:48.200 ,5,1,1.,12.0,0.,12.0,0.,12.0,0.,12.0
1979-07-24 04:17:00.200 ,5,1,0.,12.0,0.,12.0,0.,12.0,0.,12.0
1979-07-24 04:17:12.200 ,5,0,0.,12.0,0.,12.0,0.,12.0,0.,12.0
1979-07-24 04:17:24.200 ,5,0,0.,12.0,0.,12.0,0.,12.0,0.,12.0
1979-07-24 04:17:36.200 ,6,1,1.,12.0,0.,12.0,0.,12.0,0.,12.0
1979-07-24 04:17:48.200 ,6,1,0.,12.0,0.,12.0,0.,12.0,0.,12.0